Wind_Speed
50 50 49 46 45 44 47 49 50 51 51 50 49 48 47 46 44 42 39 37 34 33 32 29 28 26 24 23 21 20 19 19 18 17 18 17 17 18 18 19 20 21 21 22
51 49 46 46 45 47 48 50 51 51 52 52 51 51 50 49 46 43 41 39 37 36 33 31 30 28 26 25 24 23 22 21 21 21 20 20 20 21 22 23 24 25 25 26
48 46 47 49 48 49 50 50 50 52 52 53 53 54 54 52 49 47 45 42 40 38 35 33 32 30 29 27 26 25 25 24 24 24 23 23 24 25 26 27 27 28 29 30
49 48 47 48 49 49 49 48 50 52 54 55 56 56 55 54 52 50 47 44 42 39 38 36 34 32 31 30 29 28 27 27 27 26 26 27 27 28 29 29 30 31 32 33
50 49 48 49 48 49 47 47 50 52 54 56 57 58 56 56 54 51 48 45 43 41 40 38 36 35 34 32 31 30 30 29 29 29 29 29 30 30 31 32 33 33 34 35
50 50 49 47 47 48 47 48 50 51 54 58 58 59 58 56 54 51 49 47 44 43 42 40 38 37 36 35 33 32 31 31 31 31 31 31 32 33 33 34 35 35 36 37
53 51 50 50 51 51 51 52 53 55 58 60 58 60 59 56 54 51 49 48 46 45 43 42 40 39 38 37 35 35 34 33 33 33 33 34 34 35 35 36 36 37 38 39
53 53 52 52 52 53 53 54 57 59 60 59 58 60 59 56 53 51 49 48 47 45 44 43 42 41 40 39 38 37 36 35 35 35 35 35 36 36 37 38 38 39 40 41
53 51 51 52 51 53 53 53 52 53 56 56 57 58 58 55 52 49 48 47 46 46 45 45 44 43 42 41 40 39 38 37 37 37 37 37 38 38 39 40 41 41 42 43
51 51 51 51 51 53 52 51 52 55 56 56 57 58 57 53 50 48 47 46 46 46 46 46 45 44 43 43 42 41 40 40 40 40 39 40 40 40 41 42 43 43 44 45
51 51 50 51 52 53 54 54 55 54 56 56 57 57 54 51 48 46 45 45 46 46 47 47 47 46 45 44 43 43 42 42 41 41 41 41 42 43 43 44 45 45 46 47
52 52 51 51 50 51 52 53 54 55 57 57 57 55 51 48 45 44 44 44 45 45 46 46 47 46 46 45 44 44 43 43 43 43 43 43 44 44 45 45 46 46 47 48
53 53 53 53 53 52 53 53 54 53 53 54 55 53 49 45 42 41 41 42 43 44 45 45 45 45 45 45 44 44 44 43 43 43 44 44 45 45 46 46 46 47 49 50
52 53 54 53 51 50 52 53 54 54 55 55 55 52 48 44 42 40 39 39 40 42 43 44 44 44 44 44 44 44 44 44 44 44 44 45 45 46 46 47 49 50 52 53
52 52 52 51 50 48 47 48 49 51 52 53 51 50 45 42 41 41 41 41 41 42 42 43 43 44 44 44 44 44 44 44 45 45 46 46 47 48 49 51 52 54 56 57
52 52 51 51 51 50 49 48 48 48 48 50 50 49 45 44 44 44 44 44 43 43 43 44 45 45 45 45 46 46 46 47 47 48 48 49 50 52 54 55 57 58 59 60
50 51 51 52 52 52 53 50 49 50 50 50 50 47 45 46 45 45 45 45 45 45 45 46 46 47 47 47 48 48 49 50 50 51 52 53 55 57 58 59 59 60 61 61
48 49 49 50 52 55 52 49 49 49 49 49 49 48 48 48 48 49 49 48 48 48 48 48 48 48 49 50 50 51 52 53 54 55 56 57 58 59 60 60 61 61 62 62
48 48 49 50 51 53 51 50 49 50 51 49 49 49 49 51 53 52 51 51 50 50 50 50 50 51 52 52 53 54 55 56 57 58 58 59 60 61 61 61 62 62 62 63
49 49 51 52 53 54 49 48 48 51 52 47 49 50 51 53 54 51 51 52 52 53 53 54 54 54 55 55 56 57 58 59 59 59 60 61 61 61 61 62 62 62 62 62
50 51 52 52 53 51 49 49 50 51 46 45 49 51 53 55 54 53 54 55 56 56 56 57 57 57 58 58 58 59 59 59 59 60 60 60 60 61 61 61 61 61 60 61
49 50 51 51 51 49 48 49 49 47 47 48 48 50 53 54 55 56 56 57 57 58 58 59 59 59 59 59 59 59 59 59 59 60 60 60 60 60 60 60 59 59 60 61
50 50 50 50 48 46 47 47 46 46 48 49 49 50 51 53 54 55 56 57 57 58 58 59 59 59 59 59 59 59 59 59 59 59 58 58 58 58 58 58 58 59 61 63
49 49 50 50 49 50 50 49 49 49 49 49 50 51 51 52 53 54 55 56 56 56 56 56 56 57 57 57 56 56 56 56 56 56 56 55 56 56 57 58 60 62 64 66
50 49 50 50 50 51 51 52 51 51 50 50 50 51 51 51 52 53 54 55 55 55 55 55 54 54 54 54 54 54 54 54 54 54 54 55 56 57 58 60 62 64 66 68
51 51 51 51 51 52 52 53 53 52 52 52 52 51 51 51 51 51 52 52 53 53 53 53 53 53 53 53 53 53 53 53 54 54 55 56 57 59 61 63 65 67 69 71
Wind_Direction
221 222 221 221 221 220 218 216 215 215 216 216 216 214 214 214 213 212 212 212 212 212 212 212 213 214 215 218 222 226 229 233 237 241 246 250 255 260 265 269 272 275 279 281
221 222 220 219 219 218 216 215 215 215 216 217 217 216 216 216 215 215 215 215 215 216 216 216 217 218 220 223 227 232 236 239 243 248 252 257 260 263 266 270 274 277 280 282
223 221 218 218 219 218 216 216 215 216 216 218 219 218 217 217 217 217 217 217 218 218 219 220 221 222 225 228 231 235 240 244 248 252 256 260 263 266 269 272 275 278 281 283
219 217 217 218 219 218 217 217 217 217 217 218 219 220 218 219 219 219 219 220 221 222 223 224 225 227 229 231 235 238 243 248 252 256 259 262 266 268 271 274 276 279 281 283
218 218 217 218 217 217 217 217 218 218 220 221 220 222 219 221 221 221 222 223 224 225 226 227 229 231 233 235 238 241 245 250 254 258 261 264 267 269 272 275 277 279 281 283
218 218 217 217 216 215 215 216 218 220 221 222 220 224 221 221 223 224 225 226 227 228 228 230 231 234 237 239 241 244 247 251 255 259 262 265 268 270 272 275 277 279 281 283
216 217 216 216 215 214 214 215 217 219 221 223 221 225 224 221 225 226 227 228 229 230 231 232 234 236 239 242 245 247 250 253 256 260 263 266 268 271 273 275 277 278 280 282
220 219 218 217 218 219 218 219 221 222 223 224 223 225 225 223 224 227 229 231 232 233 234 235 237 239 241 244 247 250 253 255 258 261 264 266 269 271 273 275 277 278 280 281
222 222 221 220 219 219 219 220 222 225 228 229 228 227 228 226 226 228 231 234 235 237 238 239 240 242 244 247 249 252 255 258 260 263 265 267 269 271 273 275 276 278 279 281
222 223 221 221 220 219 220 221 221 223 226 229 230 229 229 229 229 230 232 235 237 239 241 242 243 245 246 249 252 254 257 259 261 263 265 268 269 271 272 274 275 277 279 280
221 223 222 221 222 221 220 219 222 225 229 231 232 230 230 232 232 234 235 236 238 240 242 244 245 247 249 251 253 255 257 259 261 263 265 267 268 270 271 273 275 277 279 281
221 222 223 222 223 222 223 224 226 227 230 232 234 233 232 234 235 236 238 239 240 241 243 245 247 248 250 252 253 255 257 259 260 262 264 265 267 269 270 272 275 277 280 282
223 223 223 221 221 222 223 224 226 229 232 234 235 235 235 237 238 239 240 240 241 242 244 245 247 248 250 251 253 255 256 258 259 261 262 264 266 268 271 273 276 278 281 283
224 227 227 227 227 227 227 227 227 228 230 232 234 235 236 237 239 239 240 240 241 242 243 245 246 248 250 251 253 254 255 257 258 260 262 264 266 269 272 275 277 280 282 284
223 227 228 228 227 228 231 232 231 232 233 235 235 236 236 238 239 239 239 240 240 241 242 244 245 247 249 251 252 254 256 257 259 261 263 265 268 271 274 277 280 282 284 286
224 227 228 229 229 229 229 228 229 231 233 235 235 234 234 236 239 239 240 241 241 242 244 245 246 247 249 251 252 254 256 258 260 263 265 268 271 274 277 279 281 283 285 286
225 227 228 230 231 232 231 228 231 233 233 235 235 233 234 237 239 241 241 241 242 243 245 246 247 248 250 251 253 255 257 260 263 266 269 271 274 276 279 280 282 283 284 285
225 227 229 232 233 235 234 233 233 235 236 236 237 236 238 239 240 241 242 243 244 245 246 247 248 250 251 253 255 258 260 263 266 268 271 273 275 277 279 280 282 283 284 285
223 225 228 230 234 237 235 235 235 237 237 237 239 239 241 241 242 243 245 246 247 248 249 249 250 252 254 256 258 260 262 265 267 270 272 273 275 277 279 280 281 282 284 285
223 224 227 230 232 236 237 237 237 238 239 237 240 241 242 244 245 245 247 249 249 250 251 252 254 255 257 259 261 263 265 267 269 270 272 274 276 277 278 280 281 282 283 284
225 225 228 231 235 238 238 239 239 241 242 240 240 241 244 246 248 248 248 249 251 252 254 255 257 259 260 262 263 265 266 268 270 271 273 274 275 277 278 279 280 281 282 284
229 231 232 234 237 238 240 241 242 244 244 244 243 243 245 247 248 249 250 251 253 254 256 257 259 260 262 263 265 266 268 269 270 271 273 274 275 276 277 278 280 281 282 284
230 232 235 238 241 243 244 246 246 245 245 246 246 245 245 247 248 250 252 253 255 256 257 259 260 261 263 264 266 267 268 269 270 271 272 273 274 275 276 278 279 281 283 284
233 234 236 237 238 240 242 244 245 246 245 246 247 247 247 247 248 250 252 254 255 256 258 259 261 262 263 265 266 266 267 268 269 270 271 272 273 275 277 278 280 281 283 285
235 235 237 239 240 241 243 245 246 247 248 248 249 249 249 249 249 250 251 253 255 257 258 260 261 262 263 264 265 266 267 268 269 270 271 273 274 276 277 279 281 282 284 285
235 236 237 239 240 242 244 245 247 248 249 250 250 250 250 251 251 252 252 254 255 257 259 260 261 263 264 265 266 267 267 268 269 271 272 274 275 277 279 280 282 283 285 286
Height
5724 5733 5741 5751 5756 5761 5766 5772 5778 5785 5791 5797 5803 5809 5815 5819 5823 5828 5833 5837 5842 5845 5847 5851 5854 5857 5859 5861 5863 5864 5866 5867 5868 5869 5870 5870 5871 5871 5871 5871 5870 5870 5870 5869
5718 5728 5738 5742 5747 5752 5757 5764 5771 5778 5784 5790 5796 5802 5807 5812 5817 5823 5828 5832 5836 5840 5843 5847 5850 5852 5855 5857 5858 5860 5861 5863 5864 5865 5866 5866 5867 5867 5866 5866 5865 5865 5864 5863
5715 5725 5727 5732 5738 5744 5750 5758 5765 5771 5776 5781 5787 5793 5799 5804 5810 5815 5820 5825 5830 5834 5838 5842 5845 5848 5850 5852 5854 5855 5856 5858 5859 5860 5861 5861 5861 5861 5861 5860 5860 5859 5858 5857
5704 5712 5718 5724 5731 5738 5745 5752 5758 5763 5768 5772 5778 5784 5791 5797 5803 5808 5814 5819 5825 5829 5833 5836 5839 5842 5845 5847 5848 5850 5851 5852 5853 5854 5855 5855 5855 5855 5855 5854 5854 5853 5852 5850
5697 5704 5710 5717 5727 5733 5740 5745 5749 5754 5759 5764 5769 5775 5784 5789 5795 5802 5808 5814 5819 5823 5827 5830 5833 5836 5838 5840 5842 5844 5845 5847 5847 5848 5848 5849 5849 5848 5848 5847 5846 5846 5844 5843
5690 5696 5703 5713 5720 5725 5731 5736 5740 5744 5749 5754 5762 5767 5775 5782 5790 5797 5802 5807 5811 5816 5820 5823 5826 5829 5831 5834 5836 5837 5839 5840 5841 5841 5841 5842 5841 5841 5841 5840 5839 5838 5836 5835
5680 5688 5696 5703 5708 5713 5719 5726 5730 5734 5737 5746 5755 5758 5767 5777 5783 5789 5794 5799 5803 5808 5812 5816 5819 5822 5824 5826 5828 5830 5832 5833 5834 5834 5834 5834 5834 5833 5833 5832 5831 5830 5828 5826
5674 5681 5689 5695 5701 5707 5713 5719 5723 5728 5733 5740 5745 5749 5760 5769 5776 5781 5786 5791 5795 5800 5804 5808 5811 5814 5816 5819 5820 5822 5824 5825 5826 5826 5826 5826 5826 5825 5825 5824 5822 5821 5819 5817
5668 5677 5683 5688 5695 5701 5705 5711 5719 5724 5727 5732 5737 5744 5753 5761 5769 5775 5780 5784 5788 5792 5795 5799 5802 5806 5808 5810 5812 5814 5815 5816 5817 5817 5817 5817 5817 5816 5816 5814 5813 5812 5810 5808
5662 5668 5674 5680 5685 5691 5698 5705 5709 5712 5717 5722 5729 5737 5745 5754 5762 5768 5772 5776 5779 5783 5786 5789 5793 5796 5799 5801 5803 5805 5806 5807 5808 5808 5808 5808 5808 5807 5806 5805 5803 5802 5800 5797
5652 5659 5665 5670 5676 5684 5690 5694 5699 5706 5710 5716 5722 5732 5740 5747 5754 5759 5764 5767 5770 5773 5777 5780 5783 5786 5789 5791 5793 5795 5796 5797 5798 5798 5798 5798 5798 5797 5796 5794 5793 5791 5789 5787
5643 5649 5656 5663 5670 5676 5681 5687 5693 5698 5703 5709 5715 5726 5732 5739 5745 5749 5753 5757 5761 5764 5767 5770 5773 5776 5779 5781 5783 5785 5786 5787 5787 5788 5788 5788 5787 5786 5785 5784 5782 5780 5778 5776
5635 5640 5646 5651 5660 5666 5671 5678 5685 5691 5696 5700 5707 5718 5725 5731 5736 5740 5744 5747 5750 5754 5757 5760 5763 5766 5768 5770 5772 5774 5775 5776 5776 5777 5777 5777 5776 5775 5774 5773 5771 5769 5766 5764
5627 5632 5639 5646 5655 5661 5665 5671 5676 5680 5684 5691 5699 5709 5716 5722 5726 5730 5733 5737 5740 5744 5747 5750 5753 5755 5758 5760 5761 5763 5764 5765 5765 5766 5765 5765 5765 5764 5763 5761 5759 5757 5754 5751
5616 5623 5631 5639 5646 5652 5658 5664 5668 5673 5679 5685 5694 5700 5708 5713 5716 5719 5723 5726 5730 5733 5736 5739 5742 5745 5747 5749 5750 5752 5753 5754 5754 5754 5754 5754 5753 5752 5750 5749 5746 5744 5741 5738
5609 5616 5623 5629 5635 5640 5645 5651 5657 5663 5670 5676 5683 5690 5698 5701 5703 5708 5712 5716 5719 5723 5726 5729 5731 5734 5736 5738 5739 5740 5741 5742 5742 5742 5742 5741 5741 5739 5737 5735 5733 5730 5727 5723
5601 5608 5614 5619 5625 5627 5632 5643 5649 5655 5661 5668 5673 5683 5687 5690 5693 5697 5700 5704 5708 5711 5715 5718 5720 5722 5724 5726 5727 5729 5729 5730 5730 5730 5729 5729 5727 5726 5724 5721 5718 5715 5712 5708
5593 5600 5605 5610 5614 5615 5630 5637 5641 5646 5653 5659 5665 5671 5675 5679 5682 5684 5688 5693 5697 5700 5703 5705 5708 5710 5712 5713 5715 5716 5717 5717 5717 5717 5716 5715 5713 5711 5709 5706 5704 5700 5697 5693
5583 5590 5594 5599 5602 5608 5619 5627 5633 5636 5641 5650 5655 5659 5662 5665 5667 5672 5678 5681 5685 5687 5690 5692 5695 5697 5699 5700 5702 5703 5703 5703 5703 5703 5701 5700 5698 5696 5694 5691 5688 5685 5681 5678
5573 5580 5585 5589 5592 5599 5614 5619 5621 5624 5629 5641 5644 5647 5649 5651 5654 5664 5667 5668 5670 5673 5676 5678 5681 5683 5685 5686 5687 5688 5689 5689 5688 5687 5686 5684 5683 5681 5678 5675 5672 5669 5666 5662
5563 5568 5573 5579 5584 5592 5601 5605 5608 5613 5625 5630 5632 5634 5636 5638 5644 5651 5651 5653 5656 5659 5662 5664 5666 5668 5670 5671 5672 5673 5673 5673 5673 5671 5670 5668 5667 5665 5662 5660 5657 5654 5650 5647
5555 5560 5565 5570 5575 5586 5590 5593 5598 5606 5611 5614 5618 5621 5623 5627 5630 5633 5636 5639 5642 5644 5647 5649 5651 5653 5654 5655 5656 5657 5657 5657 5656 5655 5654 5653 5651 5649 5646 5644 5641 5638 5635 5631
5545 5552 5557 5563 5571 5576 5578 5583 5587 5592 5597 5600 5603 5607 5611 5614 5616 5619 5622 5625 5627 5630 5632 5634 5636 5637 5639 5640 5640 5641 5641 5640 5640 5639 5638 5636 5635 5633 5631 5628 5625 5622 5619 5615
5535 5541 5546 5552 5557 5562 5565 5569 5573 5578 5582 5585 5589 5593 5597 5600 5603 5606 5609 5611 5613 5615 5617 5619 5621 5622 5623 5624 5624 5624 5624 5624 5623 5623 5622 5620 5619 5617 5615 5612 5609 5606 5603 5599
5525 5530 5534 5539 5545 5549 5552 5556 5560 5564 5568 5572 5576 5579 5583 5586 5590 5593 5595 5597 5599 5601 5603 5604 5606 5607 5608 5608 5608 5609 5608 5608 5608 5607 5606 5605 5603 5601 5599 5596 5593 5589 5585 5581
5513 5519 5524 5528 5533 5537 5540 5543 5547 5551 5554 5558 5562 5565 5568 5572 5575 5578 5581 5583 5585 5587 5588 5589 5591 5592 5592 5593 5593 5593 5593 5593 5592 5591 5590 5588 5587 5584 5582 5579 5575 5571 5567 5562